Time,TemperatureF,DewpointF,PressureIn,WindDirection,WindDirectionDegrees,WindSpeedMPH,WindSpeedGustMPH,Humidity,HourlyPrecipIn,Conditions,Clouds,dailyrainin,SoftwareType,DateUTC
2013-01-06 00:04:00,34.2,32.9,30.25,SSW,196,1.0,3.0,95,0.00,,,0.00,Wunderground v.1.15,2013-01-06 06:04:00,
2013-01-06 00:09:00,34.2,32.9,30.25,SSE,153,2.0,3.0,95,0.00,,,0.00,Wunderground v.1.15,2013-01-06 06:09:00,
2013-01-06 00:14:00,34.2,32.9,30.26,WNW,302,4.0,4.0,95,0.00,,,0.00,Wunderground v.1.15,2013-01-06 06:14:00,
2013-01-06 00:19:00,34.2,32.9,30.26,South,171,4.0,5.0,95,0.00,,,0.00,Wunderground v.1.15,2013-01-06 06:19:00,
2013-01-06 00:24:00,34.2,32.9,30.25,WSW,248,5.0,7.0,95,0.00,,,0.00,Wunderground v.1.15,2013-01-06 06:24:00,
2013-01-06 00:30:00,34.2,32.9,30.26,SSW,196,2.0,3.0,95,0.00,,,0.00,Wunderground v.1.15,2013-01-06 06:30:00,
2013-01-06 00:35:00,34.1,32.8,30.26,SSW,213,3.0,7.0,95,0.00,,,0.00,Wunderground v.1.15,2013-01-06 06:35:00,
2013-01-06 00:40:00,34.1,32.8,30.26,SW,216,4.0,4.0,95,0.00,,,0.00,Wunderground v.1.15,2013-01-06 06:40:00,
2013-01-06 00:45:00,34.0,32.7,30.26,South,188,4.0,7.0,95,0.00,,,0.00,Wunderground v.1.15,2013-01-06 06:45:00,
2013-01-06 00:51:00,34.0,32.7,30.25,SSW,213,6.0,7.0,95,0.00,,,0.00,Wunderground v.1.15,2013-01-06 06:51:00,
2013-01-06 00:57:00,34.1,32.8,30.26,South,171,3.0,7.0,95,0.00,,,0.00,Wunderground v.1.15,2013-01-06 06:57:00,
2013-01-06 01:03:00,34.1,33.1,30.26,South,188,0.0,4.0,96,0.00,,,0.00,Wunderground v.1.15,2013-01-06 07:03:00,
2013-01-06 01:09:00,34.1,32.8,30.26,SSW,211,6.0,8.0,95,0.00,,,0.00,Wunderground v.1.15,2013-01-06 07:09:00,
2013-01-06 01:15:00,34.1,33.1,30.26,South,173,3.0,7.0,96,0.00,,,0.00,Wunderground v.1.15,2013-01-06 07:15:00,
2013-01-06 01:20:00,34.1,33.1,30.26,SSW,194,7.0,7.0,96,0.00,,,0.00,Wunderground v.1.15,2013-01-06 07:20:00,
2013-01-06 01:25:00,34.1,33.1,30.26,SSW,197,7.0,9.0,96,0.00,,,0.00,Wunderground v.1.15,2013-01-06 07:25:00,
2013-01-06 01:31:00,34.1,33.1,30.25,SSW,207,6.0,7.0,96,0.00,,,0.00,Wunderground v.1.15,2013-01-06 07:31:00,
2013-01-06 01:36:00,34.2,33.2,30.25,SSW,194,6.0,7.0,96,0.00,,,0.00,Wunderground v.1.15,2013-01-06 07:36:00,
2013-01-06 01:41:00,34.2,33.2,30.25,South,173,3.0,5.0,96,0.00,,,0.00,Wunderground v.1.15,2013-01-06 07:41:00,
2013-01-06 01:47:00,34.2,33.2,30.25,SE,134,5.0,5.0,96,0.00,,,0.00,Wunderground v.1.15,2013-01-06 07:47:00,
2013-01-06 01:53:00,34.2,33.2,30.24,South,174,4.0,7.0,96,0.00,,,0.00,Wunderground v.1.15,2013-01-06 07:53:00,
2013-01-06 01:59:00,34.3,33.3,30.25,SSW,206,5.0,7.0,96,0.00,,,0.00,Wunderground v.1.15,2013-01-06 07:59:00,
2013-01-06 02:04:00,34.3,33.3,30.25,WSW,244,1.0,6.0,96,0.00,,,0.00,Wunderground v.1.15,2013-01-06 08:04:00,
2013-01-06 02:09:00,34.3,33.3,30.24,SW,225,4.0,8.0,96,0.00,,,0.00,Wunderground v.1.15,2013-01-06 08:09:00,
2013-01-06 02:15:00,34.2,33.2,30.24,SSW,207,4.0,6.0,96,0.00,,,0.00,Wunderground v.1.15,2013-01-06 08:15:00,
2013-01-06 02:20:00,34.1,33.1,30.24,SSW,213,6.0,9.0,96,0.00,,,0.00,Wunderground v.1.15,2013-01-06 08:20:00,
2013-01-06 02:25:00,34.1,33.1,30.24,WSW,240,4.0,8.0,96,0.00,,,0.00,Wunderground v.1.15,2013-01-06 08:25:00,
2013-01-06 02:30:00,34.2,33.2,30.24,SSW,213,4.0,8.0,96,0.00,,,0.00,Wunderground v.1.15,2013-01-06 08:30:00,
2013-01-06 02:35:00,34.1,33.1,30.24,SSW,209,5.0,5.0,96,0.00,,,0.00,Wunderground v.1.15,2013-01-06 08:35:00,
2013-01-06 02:40:00,34.1,33.1,30.23,WSW,257,4.0,7.0,96,0.00,,,0.00,Wunderground v.1.15,2013-01-06 08:40:00,
2013-01-06 02:45:00,34.1,33.1,30.23,West,267,2.0,8.0,96,0.00,,,0.00,Wunderground v.1.15,2013-01-06 08:45:00,
2013-01-06 02:50:00,34.0,33.0,30.23,SW,229,4.0,11.0,96,0.00,,,0.00,Wunderground v.1.15,2013-01-06 08:50:00,
2013-01-06 02:55:00,33.9,32.9,30.23,WSW,256,8.0,10.0,96,0.00,,,0.00,Wunderground v.1.15,2013-01-06 08:55:00,
2013-01-06 03:00:00,33.9,32.9,30.23,SW,227,4.0,7.0,96,0.00,,,0.00,Wunderground v.1.15,2013-01-06 09:00:00,
2013-01-06 03:05:00,33.9,32.9,30.23,SSW,205,4.0,10.0,96,0.00,,,0.00,Wunderground v.1.15,2013-01-06 09:05:00,
2013-01-06 03:10:00,33.9,32.9,30.23,SSW,209,6.0,7.0,96,0.00,,,0.00,Wunderground v.1.15,2013-01-06 09:10:00,
2013-01-06 03:15:00,33.9,32.9,30.23,SW,218,9.0,12.0,96,0.00,,,0.00,Wunderground v.1.15,2013-01-06 09:15:00,
2013-01-06 03:20:00,33.9,32.9,30.23,West,259,5.0,7.0,96,0.00,,,0.00,Wunderground v.1.15,2013-01-06 09:20:00,
2013-01-06 03:25:00,33.9,32.9,30.23,SW,232,9.0,11.0,96,0.00,,,0.00,Wunderground v.1.15,2013-01-06 09:25:00,
2013-01-06 03:30:00,33.9,32.9,30.22,SW,222,7.0,7.0,96,0.00,,,0.00,Wunderground v.1.15,2013-01-06 09:30:00,
2013-01-06 03:35:00,33.9,32.9,30.22,SW,236,7.0,9.0,96,0.00,,,0.00,Wunderground v.1.15,2013-01-06 09:35:00,
2013-01-06 03:40:00,33.9,32.9,30.22,WSW,241,7.0,7.0,96,0.00,,,0.00,Wunderground v.1.15,2013-01-06 09:40:00,
2013-01-06 03:45:00,33.9,32.9,30.22,SW,229,7.0,9.0,96,0.00,,,0.00,Wunderground v.1.15,2013-01-06 09:45:00,
2013-01-06 03:50:00,34.0,33.0,30.22,SW,234,8.0,8.0,96,0.00,,,0.00,Wunderground v.1.15,2013-01-06 09:50:00,
2013-01-06 03:55:00,33.9,32.9,30.22,WSW,240,4.0,9.0,96,0.00,,,0.00,Wunderground v.1.15,2013-01-06 09:55:00,
2013-01-06 04:00:00,33.9,32.9,30.21,WSW,242,7.0,7.0,96,0.00,,,0.00,Wunderground v.1.15,2013-01-06 10:00:00,
2013-01-06 04:05:00,33.9,32.9,30.21,WSW,248,6.0,9.0,96,0.00,,,0.00,Wunderground v.1.15,2013-01-06 10:05:00,
2013-01-06 04:10:00,34.0,33.0,30.21,West,268,7.0,9.0,96,0.00,,,0.00,Wunderground v.1.15,2013-01-06 10:10:00,
2013-01-06 04:15:00,34.0,33.0,30.21,WSW,256,8.0,9.0,96,0.00,,,0.00,Wunderground v.1.15,2013-01-06 10:15:00,
2013-01-06 04:21:00,34.0,33.0,30.21,WSW,255,7.0,8.0,96,0.00,,,0.00,Wunderground v.1.15,2013-01-06 10:21:00,
2013-01-06 04:26:00,34.0,33.0,30.21,WSW,257,7.0,9.0,96,0.00,,,0.00,Wunderground v.1.15,2013-01-06 10:26:00,
2013-01-06 04:31:00,34.0,33.0,30.21,West,259,8.0,9.0,96,0.00,,,0.00,Wunderground v.1.15,2013-01-06 10:31:00,
2013-01-06 04:36:00,34.1,33.1,30.21,WSW,257,7.0,9.0,96,0.00,,,0.00,Wunderground v.1.15,2013-01-06 10:36:00,
2013-01-06 04:41:00,34.1,33.1,30.21,West,259,6.0,8.0,96,0.00,,,0.00,Wunderground v.1.15,2013-01-06 10:41:00,
2013-01-06 04:46:00,34.1,33.1,30.20,West,261,8.0,10.0,96,0.00,,,0.00,Wunderground v.1.15,2013-01-06 10:46:00,
2013-01-06 04:51:00,34.1,33.1,30.21,WNW,286,5.0,11.0,96,0.00,,,0.00,Wunderground v.1.15,2013-01-06 10:51:00,
2013-01-06 04:56:00,34.1,33.1,30.20,West,266,7.0,11.0,96,0.00,,,0.00,Wunderground v.1.15,2013-01-06 10:56:00,
2013-01-06 05:01:00,34.1,33.1,30.21,WSW,250,5.0,8.0,96,0.00,,,0.00,Wunderground v.1.15,2013-01-06 11:01:00,
2013-01-06 05:06:00,34.0,33.0,30.20,WSW,250,6.0,10.0,96,0.00,,,0.00,Wunderground v.1.15,2013-01-06 11:06:00,
2013-01-06 05:11:00,34.1,33.1,30.21,WSW,252,9.0,9.0,96,0.00,,,0.00,Wunderground v.1.15,2013-01-06 11:11:00,
2013-01-06 05:16:00,34.1,33.1,30.21,WNW,289,5.0,9.0,96,0.00,,,0.00,Wunderground v.1.15,2013-01-06 11:16:00,
2013-01-06 05:21:00,34.1,33.1,30.21,WSW,243,6.0,7.0,96,0.00,,,0.00,Wunderground v.1.15,2013-01-06 11:21:00,
2013-01-06 05:27:00,34.0,33.0,30.21,WSW,248,5.0,9.0,96,0.00,,,0.00,Wunderground v.1.15,2013-01-06 11:27:00,
2013-01-06 05:32:00,34.0,33.0,30.22,WSW,250,5.0,8.0,96,0.00,,,0.00,Wunderground v.1.15,2013-01-06 11:32:00,
2013-01-06 05:37:00,34.0,33.0,30.22,SW,216,5.0,9.0,96,0.00,,,0.00,Wunderground v.1.15,2013-01-06 11:37:00,
2013-01-06 05:42:00,34.0,33.0,30.22,West,272,4.0,9.0,96,0.00,,,0.00,Wunderground v.1.15,2013-01-06 11:42:00,
2013-01-06 05:47:00,34.0,33.0,30.22,West,268,4.0,9.0,96,0.00,,,0.00,Wunderground v.1.15,2013-01-06 11:47:00,
2013-01-06 05:52:00,34.0,33.0,30.22,WSW,242,7.0,9.0,96,0.00,,,0.00,Wunderground v.1.15,2013-01-06 11:52:00,
2013-01-06 05:57:00,34.0,33.0,30.22,SW,233,8.0,10.0,96,0.00,,,0.00,Wunderground v.1.15,2013-01-06 11:57:00,
2013-01-06 06:02:00,34.0,33.0,30.22,West,263,9.0,9.0,96,0.00,,,0.00,Wunderground v.1.15,2013-01-06 12:02:00,
2013-01-06 06:07:00,34.0,33.0,30.22,WNW,292,5.0,9.0,96,0.00,,,0.00,Wunderground v.1.15,2013-01-06 12:07:00,
2013-01-06 06:12:00,33.9,32.9,30.22,WSW,238,8.0,10.0,96,0.00,,,0.00,Wunderground v.1.15,2013-01-06 12:12:00,
2013-01-06 06:17:00,33.9,32.9,30.22,WSW,243,7.0,10.0,96,0.00,,,0.00,Wunderground v.1.15,2013-01-06 12:17:00,
2013-01-06 06:22:00,33.9,32.9,30.22,West,264,7.0,9.0,96,0.00,,,0.00,Wunderground v.1.15,2013-01-06 12:22:00,
2013-01-06 06:27:00,33.9,32.9,30.23,WSW,256,8.0,11.0,96,0.00,,,0.00,Wunderground v.1.15,2013-01-06 12:27:00,
2013-01-06 06:32:00,33.8,33.0,30.23,WSW,257,7.0,10.0,97,0.00,,,0.00,Wunderground v.1.15,2013-01-06 12:32:00,
2013-01-06 06:37:00,33.8,33.0,30.23,West,271,8.0,10.0,97,0.00,,,0.00,Wunderground v.1.15,2013-01-06 12:37:00,
2013-01-06 06:42:00,33.8,33.0,30.22,NNW,338,8.0,9.0,97,0.00,,,0.00,Wunderground v.1.15,2013-01-06 12:42:00,
2013-01-06 06:47:00,33.8,33.0,30.22,WSW,253,6.0,10.0,97,0.00,,,0.00,Wunderground v.1.15,2013-01-06 12:47:00,
2013-01-06 06:52:00,33.8,33.0,30.22,WSW,250,7.0,11.0,97,0.00,,,0.00,Wunderground v.1.15,2013-01-06 12:52:00,
2013-01-06 06:57:00,33.8,33.0,30.22,WSW,240,12.0,13.0,97,0.00,,,0.00,Wunderground v.1.15,2013-01-06 12:57:00,
2013-01-06 07:02:00,33.8,33.0,30.22,WSW,251,9.0,11.0,97,0.00,,,0.00,Wunderground v.1.15,2013-01-06 13:02:00,
2013-01-06 07:07:00,33.8,33.0,30.22,WSW,249,8.0,11.0,97,0.00,,,0.00,Wunderground v.1.15,2013-01-06 13:07:00,
2013-01-06 07:12:00,33.8,33.0,30.22,West,263,7.0,11.0,97,0.00,,,0.00,Wunderground v.1.15,2013-01-06 13:12:00,
2013-01-06 07:17:00,33.8,33.0,30.23,WSW,254,8.0,12.0,97,0.00,,,0.00,Wunderground v.1.15,2013-01-06 13:17:00,
2013-01-06 07:22:00,33.9,33.1,30.23,WSW,257,11.0,11.0,97,0.00,,,0.00,Wunderground v.1.15,2013-01-06 13:22:00,
2013-01-06 07:27:00,33.8,33.0,30.23,West,269,12.0,13.0,97,0.00,,,0.00,Wunderground v.1.15,2013-01-06 13:27:00,
2013-01-06 07:32:00,33.8,33.0,30.23,WNW,294,6.0,11.0,97,0.00,,,0.00,Wunderground v.1.15,2013-01-06 13:32:00,
2013-01-06 07:37:00,33.8,33.0,30.23,West,269,12.0,12.0,97,0.00,,,0.00,Wunderground v.1.15,2013-01-06 13:37:00,
2013-01-06 07:42:00,33.7,32.9,30.23,West,273,11.0,13.0,97,0.00,,,0.00,Wunderground v.1.15,2013-01-06 13:42:00,
2013-01-06 07:47:00,33.7,32.9,30.23,WNW,287,12.0,13.0,97,0.00,,,0.00,Wunderground v.1.15,2013-01-06 13:47:00,
2013-01-06 07:52:00,33.7,32.9,30.23,West,281,7.0,11.0,97,0.00,,,0.00,Wunderground v.1.15,2013-01-06 13:52:00,
2013-01-06 07:57:00,33.7,32.9,30.23,WSW,252,8.0,14.0,97,0.00,,,0.00,Wunderground v.1.15,2013-01-06 13:57:00,
2013-01-06 08:02:00,33.7,32.9,30.23,West,273,6.0,12.0,97,0.00,,,0.00,Wunderground v.1.15,2013-01-06 14:02:00,
2013-01-06 08:08:00,33.7,32.9,30.23,WSW,257,11.0,12.0,97,0.00,,,0.00,Wunderground v.1.15,2013-01-06 14:08:00,
2013-01-06 08:13:00,33.7,32.9,30.23,West,266,10.0,11.0,97,0.00,,,0.00,Wunderground v.1.15,2013-01-06 14:13:00,
2013-01-06 08:18:00,33.7,32.9,30.23,West,261,9.0,13.0,97,0.00,,,0.00,Wunderground v.1.15,2013-01-06 14:18:00,
2013-01-06 08:23:00,33.5,32.7,30.23,West,265,8.0,13.0,97,0.00,,,0.00,Wunderground v.1.15,2013-01-06 14:23:00,
2013-01-06 08:28:00,33.5,32.7,30.23,NW,309,9.0,13.0,97,0.00,,,0.00,Wunderground v.1.15,2013-01-06 14:28:00,
2013-01-06 08:33:00,33.6,32.8,30.23,SW,227,4.0,14.0,97,0.00,,,0.00,Wunderground v.1.15,2013-01-06 14:33:00,
2013-01-06 08:38:00,33.7,32.9,30.24,WNW,282,9.0,14.0,97,0.00,,,0.00,Wunderground v.1.15,2013-01-06 14:38:00,
2013-01-06 08:43:00,33.7,32.9,30.24,WSW,256,9.0,11.0,97,0.00,,,0.00,Wunderground v.1.15,2013-01-06 14:43:00,
2013-01-06 08:48:00,33.8,33.0,30.24,WSW,257,8.0,12.0,97,0.00,,,0.00,Wunderground v.1.15,2013-01-06 14:48:00,
2013-01-06 08:53:00,33.8,33.0,30.24,WNW,290,7.0,11.0,97,0.00,,,0.00,Wunderground v.1.15,2013-01-06 14:53:00,
2013-01-06 08:58:00,33.9,33.1,30.24,WNW,296,10.0,12.0,97,0.00,,,0.00,Wunderground v.1.15,2013-01-06 14:58:00,
2013-01-06 09:03:00,33.8,33.0,30.24,WNW,288,7.0,9.0,97,0.00,,,0.00,Wunderground v.1.15,2013-01-06 15:03:00,
2013-01-06 09:08:00,33.8,33.0,30.24,West,273,9.0,11.0,97,0.00,,,0.00,Wunderground v.1.15,2013-01-06 15:08:00,
2013-01-06 09:14:00,33.7,32.9,30.24,West,271,8.0,11.0,97,0.00,,,0.00,Wunderground v.1.15,2013-01-06 15:14:00,
2013-01-06 09:19:00,33.8,33.0,30.24,WNW,282,8.0,11.0,97,0.00,,,0.00,Wunderground v.1.15,2013-01-06 15:19:00,
2013-01-06 09:24:00,33.8,33.0,30.24,NW,324,8.0,12.0,97,0.00,,,0.00,Wunderground v.1.15,2013-01-06 15:24:00,
2013-01-06 09:29:00,33.7,32.9,30.24,NNW,327,3.0,13.0,97,0.00,,,0.00,Wunderground v.1.15,2013-01-06 15:29:00,
2013-01-06 09:34:00,33.7,32.9,30.24,NW,304,1.0,11.0,97,0.00,,,0.00,Wunderground v.1.15,2013-01-06 15:34:00,
2013-01-06 09:39:00,33.9,33.1,30.24,WNW,290,5.0,11.0,97,0.00,,,0.00,Wunderground v.1.15,2013-01-06 15:39:00,
2013-01-06 09:44:00,34.0,33.2,30.25,WNW,289,7.0,10.0,97,0.00,,,0.00,Wunderground v.1.15,2013-01-06 15:44:00,
2013-01-06 09:49:00,34.1,33.3,30.24,West,281,5.0,10.0,97,0.00,,,0.00,Wunderground v.1.15,2013-01-06 15:49:00,
2013-01-06 09:54:00,34.1,33.3,30.24,WSW,245,8.0,10.0,97,0.00,,,0.00,Wunderground v.1.15,2013-01-06 15:54:00,
2013-01-06 09:59:00,34.2,33.4,30.24,West,259,10.0,10.0,97,0.00,,,0.00,Wunderground v.1.15,2013-01-06 15:59:00,
2013-01-06 10:04:00,34.1,33.3,30.24,West,267,7.0,12.0,97,0.00,,,0.00,Wunderground v.1.15,2013-01-06 16:04:00,
2013-01-06 10:09:00,34.1,33.3,30.24,SW,230,9.0,12.0,97,0.00,,,0.00,Wunderground v.1.15,2013-01-06 16:09:00,
2013-01-06 10:14:00,34.0,33.2,30.24,WSW,256,6.0,9.0,97,0.00,,,0.00,Wunderground v.1.15,2013-01-06 16:14:00,
2013-01-06 10:19:00,34.1,33.3,30.24,West,267,5.0,9.0,97,0.00,,,0.00,Wunderground v.1.15,2013-01-06 16:19:00,
2013-01-06 10:24:00,34.3,33.5,30.24,SW,229,7.0,8.0,97,0.00,,,0.00,Wunderground v.1.15,2013-01-06 16:24:00,
2013-01-06 10:29:00,34.4,33.6,30.24,West,279,9.0,10.0,97,0.00,,,0.00,Wunderground v.1.15,2013-01-06 16:29:00,
2013-01-06 10:34:00,34.2,33.4,30.24,SW,229,3.0,8.0,97,0.00,,,0.00,Wunderground v.1.15,2013-01-06 16:34:00,
2013-01-06 10:40:00,34.1,33.3,30.24,WNW,284,6.0,10.0,97,0.00,,,0.00,Wunderground v.1.15,2013-01-06 16:40:00,
2013-01-06 10:45:00,34.3,33.5,30.23,West,265,5.0,11.0,97,0.00,,,0.00,Wunderground v.1.15,2013-01-06 16:45:00,
2013-01-06 10:50:00,34.4,33.6,30.23,West,274,8.0,11.0,97,0.00,,,0.00,Wunderground v.1.15,2013-01-06 16:50:00,
2013-01-06 10:55:00,34.4,33.6,30.22,West,271,5.0,10.0,97,0.00,,,0.00,Wunderground v.1.15,2013-01-06 16:55:00,
2013-01-06 11:00:00,34.6,33.8,30.22,WSW,246,6.0,12.0,97,0.00,,,0.00,Wunderground v.1.15,2013-01-06 17:00:00,
2013-01-06 11:05:00,34.4,33.6,30.22,West,266,8.0,11.0,97,0.00,,,0.00,Wunderground v.1.15,2013-01-06 17:05:00,
2013-01-06 11:10:00,34.3,33.5,30.21,SW,229,6.0,13.0,97,0.00,,,0.00,Wunderground v.1.15,2013-01-06 17:10:00,
2013-01-06 11:15:00,34.5,33.7,30.21,North,9,5.0,13.0,97,0.00,,,0.00,Wunderground v.1.15,2013-01-06 17:15:00,
2013-01-06 11:20:00,34.5,33.7,30.21,WSW,249,5.0,14.0,97,0.00,,,0.00,Wunderground v.1.15,2013-01-06 17:20:00,
2013-01-06 11:25:00,34.6,33.8,30.21,West,273,4.0,10.0,97,0.00,,,0.00,Wunderground v.1.15,2013-01-06 17:25:00,
2013-01-06 11:30:00,34.9,34.1,30.21,West,274,10.0,12.0,97,0.00,,,0.00,Wunderground v.1.15,2013-01-06 17:30:00,
2013-01-06 11:35:00,35.1,34.3,30.20,West,263,7.0,12.0,97,0.00,,,0.00,Wunderground v.1.15,2013-01-06 17:35:00,
2013-01-06 11:40:00,35.3,34.5,30.20,WSW,251,10.0,12.0,97,0.00,,,0.00,Wunderground v.1.15,2013-01-06 17:40:00,
2013-01-06 11:45:00,35.2,34.4,30.20,WSW,245,5.0,13.0,97,0.00,,,0.00,Wunderground v.1.15,2013-01-06 17:45:00,
2013-01-06 11:50:00,35.4,34.6,30.20,WSW,245,12.0,12.0,97,0.00,,,0.00,Wunderground v.1.15,2013-01-06 17:50:00,
2013-01-06 11:55:00,35.8,34.8,30.20,West,265,9.0,13.0,96,0.00,,,0.00,Wunderground v.1.15,2013-01-06 17:55:00,
2013-01-06 12:00:00,36.0,35.0,30.20,WSW,250,8.0,10.0,96,0.00,,,0.00,Wunderground v.1.15,2013-01-06 18:00:00,
2013-01-06 12:05:00,36.3,34.7,30.20,West,261,9.0,12.0,94,0.00,,,0.00,Wunderground v.1.15,2013-01-06 18:05:00,
2013-01-06 12:10:00,36.2,34.1,30.19,WNW,288,7.0,11.0,92,0.00,,,0.00,Wunderground v.1.15,2013-01-06 18:10:00,
2013-01-06 12:15:00,36.6,34.5,30.19,NW,311,15.0,17.0,92,0.00,,,0.00,Wunderground v.1.15,2013-01-06 18:15:00,
2013-01-06 12:20:00,37.1,35.0,30.19,West,262,11.0,11.0,92,0.00,,,0.00,Wunderground v.1.15,2013-01-06 18:20:00,
2013-01-06 12:26:00,37.3,34.9,30.19,NNW,340,5.0,11.0,91,0.00,,,0.00,Wunderground v.1.15,2013-01-06 18:26:00,
2013-01-06 12:31:00,37.1,34.2,30.19,West,269,8.0,13.0,89,0.00,,,0.00,Wunderground v.1.15,2013-01-06 18:31:00,
2013-01-06 12:36:00,37.3,34.6,30.19,SSE,165,5.0,13.0,90,0.00,,,0.00,Wunderground v.1.15,2013-01-06 18:36:00,
2013-01-06 12:41:00,37.6,34.9,30.19,West,279,11.0,17.0,90,0.00,,,0.00,Wunderground v.1.15,2013-01-06 18:41:00,
2013-01-06 12:46:00,37.7,34.2,30.19,West,276,14.0,17.0,87,0.00,,,0.00,Wunderground v.1.15,2013-01-06 18:46:00,
2013-01-06 12:51:00,37.8,34.3,30.19,West,274,13.0,13.0,87,0.00,,,0.00,Wunderground v.1.15,2013-01-06 18:51:00,
2013-01-06 12:56:00,38.0,34.8,30.19,West,274,13.0,20.0,88,0.00,,,0.00,Wunderground v.1.15,2013-01-06 18:56:00,
2013-01-06 13:01:00,38.2,34.7,30.18,NW,307,17.0,17.0,87,0.00,,,0.00,Wunderground v.1.15,2013-01-06 19:01:00,
2013-01-06 13:06:00,38.5,34.4,30.18,WNW,288,15.0,18.0,85,0.00,,,0.00,Wunderground v.1.15,2013-01-06 19:06:00,
2013-01-06 13:11:00,38.6,34.2,30.18,NW,306,8.0,13.0,84,0.00,,,0.00,Wunderground v.1.15,2013-01-06 19:11:00,
2013-01-06 13:16:00,38.6,33.9,30.19,West,279,7.0,13.0,83,0.00,,,0.00,Wunderground v.1.15,2013-01-06 19:16:00,
2013-01-06 13:21:00,38.4,33.4,30.18,WSW,250,8.0,9.0,82,0.00,,,0.00,Wunderground v.1.15,2013-01-06 19:21:00,
2013-01-06 13:26:00,38.5,33.5,30.18,North,5,4.0,18.0,82,0.00,,,0.00,Wunderground v.1.15,2013-01-06 19:26:00,
2013-01-06 13:31:00,38.6,33.3,30.18,SW,230,10.0,13.0,81,0.00,,,0.00,Wunderground v.1.15,2013-01-06 19:31:00,
2013-01-06 13:36:00,38.8,33.2,30.18,West,280,8.0,15.0,80,0.00,,,0.00,Wunderground v.1.15,2013-01-06 19:36:00,
2013-01-06 13:41:00,39.2,33.2,30.18,WSW,243,15.0,17.0,79,0.00,,,0.00,Wunderground v.1.15,2013-01-06 19:41:00,
2013-01-06 13:46:00,39.3,33.6,30.18,West,275,16.0,19.0,80,0.00,,,0.00,Wunderground v.1.15,2013-01-06 19:46:00,
2013-01-06 13:51:00,39.3,33.0,30.17,WNW,303,13.0,13.0,78,0.00,,,0.00,Wunderground v.1.15,2013-01-06 19:51:00,
2013-01-06 13:57:00,39.6,33.6,30.17,West,273,12.0,15.0,79,0.00,,,0.00,Wunderground v.1.15,2013-01-06 19:57:00,
2013-01-06 14:02:00,39.6,33.3,30.17,WSW,242,8.0,14.0,78,0.00,,,0.00,Wunderground v.1.15,2013-01-06 20:02:00,
2013-01-06 14:08:00,39.4,33.1,30.17,West,272,13.0,14.0,78,0.00,,,0.00,Wunderground v.1.15,2013-01-06 20:08:00,
2013-01-06 14:11:00,39.6,33.3,30.17,West,271,9.0,11.0,78,0.00,,,0.00,Wunderground v.1.15,2013-01-06 20:11:00,
2013-01-06 14:13:00,39.7,33.1,30.17,WNW,296,8.0,11.0,77,0.00,,,0.00,Wunderground v.1.15,2013-01-06 20:13:00,
2013-01-06 14:18:00,39.7,32.8,30.17,WSW,252,13.0,15.0,76,0.00,,,0.00,Wunderground v.1.15,2013-01-06 20:18:00,
2013-01-06 14:23:00,39.6,33.0,30.17,WSW,250,9.0,14.0,77,0.00,,,0.00,Wunderground v.1.15,2013-01-06 20:23:00,
2013-01-06 14:28:00,39.8,33.2,30.17,West,267,8.0,14.0,77,0.00,,,0.00,Wunderground v.1.15,2013-01-06 20:28:00,
2013-01-06 14:33:00,40.1,33.5,30.17,WNW,288,7.0,14.0,77,0.00,,,0.00,Wunderground v.1.15,2013-01-06 20:33:00,
2013-01-06 14:38:00,40.3,33.3,30.17,West,281,10.0,15.0,76,0.00,,,0.00,Wunderground v.1.15,2013-01-06 20:38:00,
2013-01-06 14:44:00,40.4,33.4,30.17,West,266,4.0,13.0,76,0.00,,,0.00,Wunderground v.1.15,2013-01-06 20:44:00,
2013-01-06 14:49:00,40.6,33.3,30.17,WSW,246,10.0,15.0,75,0.00,,,0.00,Wunderground v.1.15,2013-01-06 20:49:00,
2013-01-06 14:54:00,40.6,33.3,30.17,NW,319,3.0,14.0,75,0.00,,,0.00,Wunderground v.1.15,2013-01-06 20:54:00,
2013-01-06 14:59:00,40.9,33.6,30.18,West,259,9.0,15.0,75,0.00,,,0.00,Wunderground v.1.15,2013-01-06 20:59:00,
2013-01-06 15:01:00,41.0,34.0,30.18,SW,234,5.0,9.0,76,0.00,,,0.00,Wunderground v.1.15,2013-01-06 21:01:00,
2013-01-06 15:06:00,41.1,33.8,30.18,West,281,8.0,16.0,75,0.00,,,0.00,Wunderground v.1.15,2013-01-06 21:06:00,
2013-01-06 15:11:00,41.3,34.0,30.18,WNW,294,14.0,15.0,75,0.00,,,0.00,Wunderground v.1.15,2013-01-06 21:11:00,
2013-01-06 15:16:00,41.1,33.8,30.19,West,275,17.0,17.0,75,0.00,,,0.00,Wunderground v.1.15,2013-01-06 21:16:00,
2013-01-06 15:21:00,40.9,33.6,30.19,WNW,300,14.0,14.0,75,0.00,,,0.00,Wunderground v.1.15,2013-01-06 21:21:00,
2013-01-06 15:26:00,40.8,33.5,30.19,WNW,298,8.0,16.0,75,0.00,,,0.00,Wunderground v.1.15,2013-01-06 21:26:00,
2013-01-06 15:31:00,40.6,33.3,30.18,WNW,291,12.0,13.0,75,0.00,,,0.00,Wunderground v.1.15,2013-01-06 21:31:00,
2013-01-06 15:36:00,40.6,33.3,30.18,WNW,286,12.0,18.0,75,0.00,,,0.00,Wunderground v.1.15,2013-01-06 21:36:00,
2013-01-06 15:41:00,40.7,33.4,30.19,West,267,10.0,17.0,75,0.00,,,0.00,Wunderground v.1.15,2013-01-06 21:41:00,
2013-01-06 15:46:00,40.7,33.7,30.19,West,271,8.0,18.0,76,0.00,,,0.00,Wunderground v.1.15,2013-01-06 21:46:00,
2013-01-06 15:51:00,40.4,33.1,30.19,WSW,245,17.0,25.0,75,0.00,,,0.00,Wunderground v.1.15,2013-01-06 21:51:00,
2013-01-06 15:56:00,40.3,33.0,30.19,NW,317,25.0,26.0,75,0.00,,,0.00,Wunderground v.1.15,2013-01-06 21:56:00,
2013-01-06 16:01:00,40.1,33.1,30.20,NW,316,10.0,17.0,76,0.00,,,0.00,Wunderground v.1.15,2013-01-06 22:01:00,
2013-01-06 16:06:00,40.0,33.0,30.20,WNW,300,14.0,17.0,76,0.00,,,0.00,Wunderground v.1.15,2013-01-06 22:06:00,
2013-01-06 16:11:00,40.0,33.0,30.20,WNW,294,16.0,19.0,76,0.00,,,0.00,Wunderground v.1.15,2013-01-06 22:11:00,
2013-01-06 16:17:00,39.9,33.3,30.20,WNW,290,15.0,19.0,77,0.00,,,0.00,Wunderground v.1.15,2013-01-06 22:17:00,
2013-01-06 16:22:00,39.7,33.4,30.20,NW,311,16.0,18.0,78,0.00,,,0.00,Wunderground v.1.15,2013-01-06 22:22:00,
2013-01-06 16:27:00,39.7,33.4,30.20,West,274,11.0,21.0,78,0.00,,,0.00,Wunderground v.1.15,2013-01-06 22:27:00,
2013-01-06 16:32:00,39.5,33.5,30.20,WNW,299,13.0,18.0,79,0.00,,,0.00,Wunderground v.1.15,2013-01-06 22:32:00,
2013-01-06 16:37:00,39.4,33.4,30.20,WNW,295,16.0,20.0,79,0.00,,,0.00,Wunderground v.1.15,2013-01-06 22:37:00,
2013-01-06 16:42:00,39.3,33.3,30.21,West,261,13.0,16.0,79,0.00,,,0.00,Wunderground v.1.15,2013-01-06 22:42:00,
2013-01-06 16:47:00,39.4,33.4,30.21,SSW,206,7.0,21.0,79,0.00,,,0.00,Wunderground v.1.15,2013-01-06 22:47:00,
2013-01-06 16:52:00,39.3,33.6,30.21,West,265,13.0,16.0,80,0.00,,,0.00,Wunderground v.1.15,2013-01-06 22:52:00,
2013-01-06 16:57:00,39.2,33.5,30.21,NW,304,10.0,16.0,80,0.00,,,0.00,Wunderground v.1.15,2013-01-06 22:57:00,
2013-01-06 17:02:00,39.2,33.9,30.21,WNW,295,11.0,20.0,81,0.00,,,0.00,Wunderground v.1.15,2013-01-06 23:02:00,
2013-01-06 17:07:00,39.1,33.8,30.21,WNW,300,16.0,22.0,81,0.00,,,0.00,Wunderground v.1.15,2013-01-06 23:07:00,
2013-01-06 17:12:00,39.0,33.7,30.21,WNW,294,14.0,20.0,81,0.00,,,0.00,Wunderground v.1.15,2013-01-06 23:12:00,
2013-01-06 17:17:00,39.1,33.8,30.22,WNW,288,12.0,20.0,81,0.00,,,0.00,Wunderground v.1.15,2013-01-06 23:17:00,
2013-01-06 17:22:00,39.2,33.9,30.21,NW,313,12.0,23.0,81,0.00,,,0.00,Wunderground v.1.15,2013-01-06 23:22:00,
2013-01-06 17:27:00,39.0,34.0,30.21,NW,322,15.0,23.0,82,0.00,,,0.00,Wunderground v.1.15,2013-01-06 23:27:00,
2013-01-06 17:32:00,38.8,33.8,30.21,West,273,15.0,20.0,82,0.00,,,0.00,Wunderground v.1.15,2013-01-06 23:32:00,
2013-01-06 17:37:00,38.9,33.9,30.22,SSW,201,8.0,21.0,82,0.00,,,0.00,Wunderground v.1.15,2013-01-06 23:37:00,
2013-01-06 17:42:00,38.8,33.8,30.21,WNW,293,19.0,19.0,82,0.00,,,0.00,Wunderground v.1.15,2013-01-06 23:42:00,
2013-01-06 17:47:00,38.7,33.7,30.21,WNW,288,17.0,23.0,82,0.00,,,0.00,Wunderground v.1.15,2013-01-06 23:47:00,
2013-01-06 17:52:00,38.4,33.7,30.21,SSW,204,7.0,20.0,83,0.00,,,0.00,Wunderground v.1.15,2013-01-06 23:52:00,
2013-01-06 17:58:00,38.3,33.6,30.22,WNW,284,4.0,20.0,83,0.00,,,0.00,Wunderground v.1.15,2013-01-06 23:58:00,
2013-01-06 18:03:00,38.4,33.7,30.22,NW,313,11.0,21.0,83,0.00,,,0.00,Wunderground v.1.15,2013-01-07 00:03:00,
2013-01-06 18:08:00,38.3,33.6,30.22,WNW,285,16.0,21.0,83,0.00,,,0.00,Wunderground v.1.15,2013-01-07 00:08:00,
2013-01-06 18:13:00,38.6,33.3,30.23,West,267,15.0,23.0,81,0.00,,,0.00,Wunderground v.1.15,2013-01-07 00:13:00,
2013-01-06 18:18:00,38.5,33.5,30.23,NNW,331,12.0,23.0,82,0.00,,,0.00,Wunderground v.1.15,2013-01-07 00:18:00,
2013-01-06 18:23:00,38.6,33.0,30.23,WNW,294,22.0,26.0,80,0.00,,,0.00,Wunderground v.1.15,2013-01-07 00:23:00,
2013-01-06 18:28:00,38.7,33.1,30.23,WSW,254,15.0,28.0,80,0.00,,,0.00,Wunderground v.1.15,2013-01-07 00:28:00,
2013-01-06 18:33:00,38.6,33.0,30.23,WNW,286,25.0,28.0,80,0.00,,,0.00,Wunderground v.1.15,2013-01-07 00:33:00,
2013-01-06 18:38:00,38.6,33.0,30.24,West,276,24.0,28.0,80,0.00,,,0.00,Wunderground v.1.15,2013-01-07 00:38:00,
2013-01-06 18:43:00,38.4,32.8,30.24,WNW,289,32.0,32.0,80,0.00,,,0.00,Wunderground v.1.15,2013-01-07 00:43:00,
2013-01-06 18:48:00,38.3,32.4,30.24,WNW,287,14.0,32.0,79,0.00,,,0.00,Wunderground v.1.15,2013-01-07 00:48:00,
2013-01-06 18:53:00,38.0,32.4,30.25,WNW,296,25.0,26.0,80,0.00,,,0.00,Wunderground v.1.15,2013-01-07 00:53:00,
2013-01-06 18:58:00,37.8,32.5,30.25,WSW,256,10.0,26.0,81,0.00,,,0.00,Wunderground v.1.15,2013-01-07 00:58:00,
2013-01-06 19:03:00,37.5,32.2,30.25,West,281,8.0,20.0,81,0.00,,,0.00,Wunderground v.1.15,2013-01-07 01:03:00,
2013-01-06 19:08:00,37.1,31.8,30.26,NW,308,13.0,20.0,81,0.00,,,0.00,Wunderground v.1.15,2013-01-07 01:08:00,
2013-01-06 19:14:00,36.7,31.7,30.26,WNW,303,22.0,23.0,82,0.00,,,0.00,Wunderground v.1.15,2013-01-07 01:14:00,
2013-01-06 19:19:00,36.5,31.5,30.27,WNW,286,16.0,24.0,82,0.00,,,0.00,Wunderground v.1.15,2013-01-07 01:19:00,
2013-01-06 19:24:00,36.4,31.4,30.27,NW,309,11.0,21.0,82,0.00,,,0.00,Wunderground v.1.15,2013-01-07 01:24:00,
2013-01-06 19:29:00,36.2,31.2,30.26,North,355,18.0,21.0,82,0.00,,,0.00,Wunderground v.1.15,2013-01-07 01:29:00,
2013-01-06 19:34:00,36.0,31.0,30.26,NW,321,14.0,22.0,82,0.00,,,0.00,Wunderground v.1.15,2013-01-07 01:34:00,
2013-01-06 19:39:00,35.8,31.1,30.26,WNW,295,20.0,25.0,83,0.00,,,0.00,Wunderground v.1.15,2013-01-07 01:39:00,
2013-01-06 19:44:00,35.7,30.7,30.26,WNW,290,20.0,29.0,82,0.00,,,0.00,Wunderground v.1.15,2013-01-07 01:44:00,
2013-01-06 19:49:00,35.6,30.6,30.26,West,269,15.0,30.0,82,0.00,,,0.00,Wunderground v.1.15,2013-01-07 01:49:00,
2013-01-06 19:54:00,35.3,30.4,30.27,NW,323,20.0,29.0,82,0.00,,,0.00,Wunderground v.1.15,2013-01-07 01:54:00,
2013-01-06 19:59:00,35.1,30.5,30.27,West,269,6.0,29.0,83,0.00,,,0.00,Wunderground v.1.15,2013-01-07 01:59:00,
2013-01-06 20:04:00,34.8,30.2,30.27,WNW,292,19.0,24.0,83,0.00,,,0.00,Wunderground v.1.15,2013-01-07 02:04:00,
2013-01-06 20:09:00,34.5,30.2,30.27,NW,309,13.0,24.0,84,0.00,,,0.00,Wunderground v.1.15,2013-01-07 02:09:00,
2013-01-06 20:14:00,34.3,30.0,30.27,NNW,343,9.0,23.0,84,0.00,,,0.00,Wunderground v.1.15,2013-01-07 02:14:00,
2013-01-06 20:19:00,34.2,29.9,30.27,WNW,284,17.0,27.0,84,0.00,,,0.00,Wunderground v.1.15,2013-01-07 02:19:00,
2013-01-06 20:24:00,34.1,30.1,30.27,West,278,17.0,32.0,85,0.00,,,0.00,Wunderground v.1.15,2013-01-07 02:24:00,
2013-01-06 20:29:00,34.0,30.0,30.27,NNW,327,19.0,32.0,85,0.00,,,0.00,Wunderground v.1.15,2013-01-07 02:29:00,
2013-01-06 20:34:00,33.9,29.9,30.27,WNW,283,12.0,28.0,85,0.00,,,0.00,Wunderground v.1.15,2013-01-07 02:34:00,
2013-01-06 20:39:00,33.8,29.8,30.27,NNW,331,10.0,30.0,85,0.00,,,0.00,Wunderground v.1.15,2013-01-07 02:39:00,
2013-01-06 20:44:00,33.6,29.9,30.27,West,277,4.0,24.0,86,0.00,,,0.00,Wunderground v.1.15,2013-01-07 02:44:00,
2013-01-06 20:50:00,33.4,29.7,30.27,NW,308,15.0,27.0,86,0.00,,,0.00,Wunderground v.1.15,2013-01-07 02:50:00,
2013-01-06 20:55:00,33.3,29.6,30.27,NW,313,20.0,29.0,86,0.00,,,0.00,Wunderground v.1.15,2013-01-07 02:55:00,
2013-01-06 21:00:00,33.2,29.5,30.27,NW,312,13.0,29.0,86,0.00,,,0.00,Wunderground v.1.15,2013-01-07 03:00:00,
2013-01-06 21:05:00,33.1,29.4,30.28,NW,304,13.0,26.0,86,0.00,,,0.00,Wunderground v.1.15,2013-01-07 03:05:00,
2013-01-06 21:10:00,33.2,29.5,30.29,NW,308,8.0,26.0,86,0.00,,,0.00,Wunderground v.1.15,2013-01-07 03:10:00,
2013-01-06 21:15:00,33.1,29.4,30.30,NW,321,14.0,17.0,86,0.00,,,0.00,Wunderground v.1.15,2013-01-07 03:15:00,
2013-01-06 21:20:00,33.2,29.5,30.30,West,273,10.0,17.0,86,0.00,,,0.00,Wunderground v.1.15,2013-01-07 03:20:00,
2013-01-06 21:25:00,33.2,29.5,30.31,WNW,298,8.0,13.0,86,0.00,,,0.00,Wunderground v.1.15,2013-01-07 03:25:00,
2013-01-06 21:30:00,33.2,29.5,30.31,WNW,301,13.0,18.0,86,0.00,,,0.00,Wunderground v.1.15,2013-01-07 03:30:00,
2013-01-06 21:35:00,33.1,29.4,30.31,WNW,286,6.0,15.0,86,0.00,,,0.00,Wunderground v.1.15,2013-01-07 03:35:00,
2013-01-06 21:40:00,33.0,29.3,30.31,NW,318,11.0,18.0,86,0.00,,,0.00,Wunderground v.1.15,2013-01-07 03:40:00,
2013-01-06 21:45:00,33.0,29.3,30.32,WNW,296,13.0,16.0,86,0.00,,,0.00,Wunderground v.1.15,2013-01-07 03:45:00,
2013-01-06 21:50:00,32.9,29.5,30.32,NW,309,2.0,16.0,87,0.00,,,0.00,Wunderground v.1.15,2013-01-07 03:50:00,
2013-01-06 21:55:00,32.7,29.3,30.32,WNW,290,8.0,11.0,87,0.00,,,0.00,Wunderground v.1.15,2013-01-07 03:55:00,
2013-01-06 22:00:00,32.6,29.2,30.32,WNW,295,4.0,18.0,87,0.00,,,0.00,Wunderground v.1.15,2013-01-07 04:00:00,
2013-01-06 22:05:00,32.5,29.1,30.32,West,273,13.0,17.0,87,0.00,,,0.00,Wunderground v.1.15,2013-01-07 04:05:00,
2013-01-06 22:10:00,32.4,29.0,30.31,NNE,17,6.0,22.0,87,0.00,,,0.00,Wunderground v.1.15,2013-01-07 04:10:00,
2013-01-06 22:15:00,32.1,28.7,30.30,West,261,16.0,26.0,87,0.00,,,0.00,Wunderground v.1.15,2013-01-07 04:15:00,
2013-01-06 22:20:00,31.7,28.3,30.30,NW,304,22.0,29.0,87,0.00,,,0.00,Wunderground v.1.15,2013-01-07 04:20:00,
2013-01-06 22:25:00,31.3,28.2,30.29,SSE,167,11.0,25.0,88,0.00,,,0.00,Wunderground v.1.15,2013-01-07 04:25:00,
2013-01-06 22:30:00,31.0,27.9,30.29,WNW,282,13.0,25.0,88,0.00,,,0.00,Wunderground v.1.15,2013-01-07 04:30:00,
2013-01-06 22:35:00,30.8,27.9,30.30,West,273,13.0,29.0,89,0.00,,,0.00,Wunderground v.1.15,2013-01-07 04:35:00,
2013-01-06 22:40:00,30.6,27.7,30.29,South,184,7.0,29.0,89,0.00,,,0.00,Wunderground v.1.15,2013-01-07 04:40:00,
2013-01-06 22:45:00,30.5,27.6,30.29,NW,307,24.0,30.0,89,0.00,,,0.00,Wunderground v.1.15,2013-01-07 04:45:00,
2013-01-06 22:50:00,30.3,27.4,30.29,WNW,301,23.0,30.0,89,0.00,,,0.00,Wunderground v.1.15,2013-01-07 04:50:00,
2013-01-06 22:55:00,30.1,27.3,30.29,WNW,301,26.0,26.0,89,0.00,,,0.00,Wunderground v.1.15,2013-01-07 04:55:00,
2013-01-06 23:00:00,30.0,27.2,30.29,WNW,286,17.0,26.0,89,0.00,,,0.00,Wunderground v.1.15,2013-01-07 05:00:00,
2013-01-06 23:01:00,29.9,27.3,30.29,WNW,300,10.0,21.0,90,0.00,,,0.00,Wunderground v.1.15,2013-01-07 05:01:00,
2013-01-06 23:06:00,29.9,27.3,30.29,WSW,251,7.0,22.0,90,0.00,,,0.00,Wunderground v.1.15,2013-01-07 05:06:00,
2013-01-06 23:11:00,29.7,27.1,30.30,WNW,295,9.0,23.0,90,0.00,,,0.00,Wunderground v.1.15,2013-01-07 05:11:00,
2013-01-06 23:16:00,29.7,27.1,30.30,NW,304,20.0,24.0,90,0.00,,,0.00,Wunderground v.1.15,2013-01-07 05:16:00,
2013-01-06 23:21:00,29.6,27.0,30.30,WSW,256,10.0,16.0,90,0.00,,,0.00,Wunderground v.1.15,2013-01-07 05:21:00,
2013-01-06 23:26:00,29.4,26.8,30.30,WSW,250,8.0,19.0,90,0.00,,,0.00,Wunderground v.1.15,2013-01-07 05:26:00,
2013-01-06 23:31:00,29.4,26.8,30.30,WNW,298,12.0,16.0,90,0.00,,,0.00,Wunderground v.1.15,2013-01-07 05:31:00,
2013-01-06 23:37:00,29.2,26.6,30.30,NW,315,14.0,17.0,90,0.00,,,0.00,Wunderground v.1.15,2013-01-07 05:37:00,
2013-01-06 23:42:00,29.1,26.5,30.30,East,90,3.0,13.0,90,0.00,,,0.00,Wunderground v.1.15,2013-01-07 05:42:00,
2013-01-06 23:47:00,29.0,26.4,30.30,West,267,8.0,16.0,90,0.00,,,0.00,Wunderground v.1.15,2013-01-07 05:47:00,
2013-01-06 23:52:00,28.8,26.5,30.30,West,271,8.0,16.0,91,0.00,,,0.00,Wunderground v.1.15,2013-01-07 05:52:00,
2013-01-06 23:57:00,28.7,26.4,30.30,NW,306,10.0,16.0,91,0.00,,,0.00,Wunderground v.1.15,2013-01-07 05:57:00,